SAUDISAT 1C (SO-50) (27607 NORAD) Tracking and Keplerian Element Data

This shows tracking and keplerian element data for the satellite.

Feedback or suggestion? Click here.




ElementValue
Catalog27607
NameSAUDISAT 1C (SO-50)
Epoch Orbit85583
Epoch Day323.22097468
Epoch Year2018
RAAN336.1134
Inclination64.555
Eccentricity0.0078384
Argument of Perigee296.6706
Mean Anonmoly62.6384
Mean Motion14.75498019
Decay Rate1.9E-07
L11 27607U 02058C 18323.22097468 .00000019 00000-0 23530-4 0 9999
L22 27607 64.5550 336.1134 0078384 296.6706 62.6384 14.75498019855832

Live tracking and technical data element details for SAUDISAT 1C (SO-50) (NORAD 27607). SAUDISAT 1C (SO-50) can be tracked NOW for your location showing map with azimuth and elevation plus other details from your city location.

Track the satellite on the map from your city or location and see movement details for azimuth, elevation, latitude, longitude, range, height, and movement on the map or in text.







IsCatalogInMostPopularTable: catalog: 27607, numindb: 114
Update: records affected: 1



GetName: 27607 SAUDISAT 1C (SO-50)

Hit Count: updated at: Mon, 19 Nov 2018 13:04:56 GMT